This is the latest recevied weather packets stored in our database for station/object KB1RMA-4. If no packets are shown the sender has not sent any weather packets the latest 10 day(s).
| Time | Temp. | Humidity | Pressure | Rain* | Wind** | Luminosity | Snow |
|---|---|---|---|---|---|---|---|
| 1788447410 | 19.44° C | 96% | 1014.6 hPa | 0 mm | - | 301 W/m² | - |
| 1788447116 | 18.89° C | 97% | 1014.5 hPa | 0 mm | - | 211 W/m² | - |
| 1788446804 | 19.44° C | 97% | 1014.6 hPa | 0 mm | - | 167 W/m² | - |
| 1788446500 | 18.89° C | 97% | 1014.3 hPa | 0 mm | - | 214 W/m² | - |
| 1788446196 | 18.89° C | 97% | 1014.6 hPa | 0 mm | - | 217 W/m² | - |
| 1788445891 | 18.89° C | 97% | 1014.6 hPa | 0 mm | - | 237 W/m² | - |
| 1788445615 | 18.89° C | 97% | 1014.7 hPa | 0 mm | - | 154 W/m² | - |
| 1788445284 | 18.89° C | 98% | 1014.8 hPa | 0 mm | - | 170 W/m² | - |
| 1788444979 | 18.89° C | 98% | 1014.8 hPa | 0 mm | - | 194 W/m² | - |
| 1788444674 | 18.89° C | 98% | 1014.7 hPa | 0 mm | - | 206 W/m² | - |
| 1788444370 | 18.89° C | 98% | 1014.9 hPa | 0 mm | - | 143 W/m² | - |
| 1788444091 | 18.89° C | 98% | 1015.1 hPa | 0 mm | - | 83 W/m² | - |
| 1788443761 | 18.33° C | 98% | 1014.8 hPa | 0 mm | - | 108 W/m² | - |
| 1788443460 | 18.33° C | 98% | 1015 hPa | 0 mm | - | 62 W/m² | - |
| 1788443159 | 18.33° C | 98% | 1014.8 hPa | 0 mm | - | 106 W/m² | - |
| 1788442855 | 18.33° C | 98% | 1014.9 hPa | 0 mm | - | 99 W/m² | - |
| 1788442575 | 17.78° C | 97% | 1014.8 hPa | 0 mm | - | 69 W/m² | - |
| 1788442248 | 17.78° C | 97% | 1014.9 hPa | 0 mm | - | 75 W/m² | - |
| 1788441943 | 17.78° C | 97% | 1015.1 hPa | 0 mm | - | 59 W/m² | - |
| 1788441638 | 17.78° C | 97% | 1015 hPa | 0 mm | - | 49 W/m² | - |
| 1788441333 | 17.78° C | 97% | 1014.9 hPa | 0 mm | - | 45 W/m² | - |
| 1788441056 | 17.78° C | 97% | 1014.8 hPa | 0 mm | - | 38 W/m² | - |
| 1788440727 | 17.78° C | 97% | 1015 hPa | 0 mm | - | 44 W/m² | - |
| 1788440426 | 17.78° C | 97% | 1014.9 hPa | 0 mm | - | 48 W/m² | - |
| 1788440125 | 17.78° C | 97% | 1015.1 hPa | 0 mm | - | 42 W/m² | - |
* Rain latest hour (hover to see other rain measurements)
** Current wind speed in m/s (hover to see current wind gust speed)